Reidsville, NC

10:00 AM EDT on April 19, 2018 (GMT -0400)
Reidsville

Weather History for KSIF - January, 2012

Change the Weather History Date:

Friday, January 13, 2012

  Actual Average (KGSO) Record (KGSO)
Temperature  
Mean Temperature 38 °F -  
Max Temperature 46 °F 44 °F 76 °F (1911)
Min Temperature 30 °F 26 °F 6 °F (1962)
Degree Days  
Heating Degree Days 27    
Moisture  
Dew Point 19 °F    
Average Humidity 51    
Maximum Humidity 69    
Minimum Humidity 41    
Precipitation  
Precipitation 0.00 in - - ()
Sea Level Pressure  
Sea Level Pressure 29.82 in    
Wind  
Wind Speed 11 mph (West)    
Max Wind Speed 15 mph    
Max Gust Speed 29 mph    
Visibility 10 miles    
Events      
Averages and records for this station are not official NWS values.
T = Trace of Precipitation, MM = Missing Value Source: NWS Daily Summary

Daily Weather History Graph

Daily Weather History Graph

Search for Another Location

Airport or City:

Astronomy

Jan. 13, 2012 Rise Set
Actual Time 7:30 AM EST 5:25 PM EST
Civil Twilight 7:02 AM EST 5:53 PM EST
Nautical Twilight 6:30 AM EST 6:25 PM EST
Astronomical Twilight 5:59 AM EST 6:56 PM EST
Moon 10:25 PM EST (1/13) 9:53 AM EST (1/13)
Length of Visible Light 10h 50m
Length of Day
9h 54m
Waning Gibbous, 79% of the Moon is Illuminated
Jan 13
Waning Gibbous
Jan 16
Last Quarter
Jan 23
New
Jan 30
First Quarter
Feb 7
Full

Hourly Weather History & Observations

Time (EST) Temp. Windchill Dew Point Humidity Pressure Visibility Wind Dir Wind Speed Gust Speed Precip Events Conditions
12:15 AM 46.0 °F 40.6 °F 36.3 °F 69% 29.52 in 10.0 mi West 11.5 mph 24.2 mph N/A   Mostly Cloudy
12:35 AM 44.6 °F 38.8 °F 34.9 °F 69% 29.54 in 10.0 mi West 11.5 mph 27.6 mph N/A   Overcast
12:55 AM 43.3 °F 36.8 °F 33.4 °F 68% 29.56 in 10.0 mi West 12.7 mph 24.2 mph N/A   Overcast
1:15 AM 42.6 °F 37.2 °F 30.7 °F 63% 29.57 in 10.0 mi West 9.2 mph 20.7 mph N/A   Overcast
1:35 AM 41.7 °F 36.7 °F 28.6 °F 60% 29.59 in 10.0 mi West 8.1 mph 16.1 mph N/A   Overcast
1:55 AM 40.3 °F 32.2 °F 27.1 °F 59% 29.62 in 10.0 mi WNW 15.0 mph 21.9 mph N/A   Overcast
2:15 AM 38.8 °F 30.8 °F 23.7 °F 55% 29.64 in 10.0 mi WNW 13.8 mph 27.6 mph N/A   Overcast
2:35 AM 37.8 °F 30.7 °F 21.4 °F 52% 29.65 in 10.0 mi West 10.4 mph 19.6 mph N/A   Overcast
2:55 AM 37.0 °F 29.3 °F 20.1 °F 50% 29.66 in 10.0 mi West 11.5 mph 18.4 mph N/A   Overcast
3:15 AM 36.3 °F 30.1 °F 17.8 °F 47% 29.68 in 10.0 mi West 8.1 mph 28.8 mph N/A   Mostly Cloudy
3:35 AM 35.2 °F 28.8 °F 16.7 °F 47% 29.69 in 10.0 mi West 8.1 mph - N/A   Clear
3:55 AM 34.3 °F 25.5 °F 17.2 °F 50% 29.70 in 10.0 mi West 12.7 mph 18.4 mph N/A   Clear
4:15 AM 33.6 °F 25.0 °F 18.3 °F 54% 29.71 in 10.0 mi West 11.5 mph 18.4 mph N/A   Clear
4:35 AM 32.9 °F 25.3 °F 19.2 °F 57% 29.73 in 10.0 mi WSW 9.2 mph - N/A   Clear
4:55 AM 32.2 °F 23.2 °F 18.3 °F 57% 29.74 in 10.0 mi WSW 11.5 mph 20.7 mph N/A   Clear
5:15 AM 32.0 °F 25.6 °F 17.8 °F 56% 29.74 in 10.0 mi WSW 6.9 mph - N/A   Clear
5:35 AM 31.3 °F 24.7 °F 18.5 °F 59% 29.75 in 10.0 mi WSW 6.9 mph - N/A   Clear
5:55 AM 30.9 °F 24.3 °F 18.3 °F 60% 29.76 in 10.0 mi WSW 6.9 mph - N/A   Clear
6:15 AM 30.7 °F 22.6 °F 18.0 °F 59% 29.76 in 10.0 mi SW 9.2 mph - N/A   Clear
6:35 AM 30.6 °F 21.8 °F 17.8 °F 59% 29.77 in 10.0 mi SW 10.4 mph 16.1 mph N/A   Clear
6:55 AM 30.4 °F 22.2 °F 17.8 °F 60% 29.78 in 10.0 mi WSW 9.2 mph 17.3 mph N/A   Clear
7:15 AM 30.2 °F 21.3 °F 17.6 °F 60% 29.79 in 10.0 mi WSW 10.4 mph 16.1 mph N/A   Clear
7:35 AM 30.2 °F 21.9 °F 17.6 °F 60% 29.80 in 10.0 mi WSW 9.2 mph 16.1 mph N/A   Clear
7:55 AM 30.2 °F 20.2 °F 17.1 °F 58% 29.81 in 10.0 mi WSW 12.7 mph 18.4 mph N/A   Clear
8:15 AM 30.6 °F 22.4 °F 16.5 °F 56% 29.83 in 10.0 mi WSW 9.2 mph 17.3 mph N/A   Clear
8:35 AM 31.5 °F 23.5 °F 16.7 °F 54% 29.84 in 10.0 mi West 9.2 mph - N/A   Clear
8:55 AM 32.0 °F 24.8 °F 16.7 °F 53% 29.85 in 10.0 mi WSW 8.1 mph - N/A   Clear
9:15 AM 32.4 °F 22.5 °F 16.5 °F 52% 29.86 in 10.0 mi WSW 13.8 mph 21.9 mph N/A   Scattered Clouds
9:35 AM 33.1 °F 23.9 °F 16.9 °F 51% 29.87 in 5.0 mi WSW 12.7 mph 17.3 mph N/A   Haze
9:55 AM 33.4 °F 25.4 °F 16.5 °F 50% 29.87 in 10.0 mi West 10.4 mph 23.0 mph N/A   Scattered Clouds
10:15 AM 34.0 °F 25.5 °F 15.6 °F 47% 29.89 in 10.0 mi West 11.5 mph 21.9 mph N/A   Scattered Clouds
10:35 AM 34.5 °F 25.3 °F 15.8 °F 46% 29.89 in 10.0 mi SW 13.8 mph 23.0 mph N/A   Scattered Clouds
11:15 AM 36.0 °F 28.0 °F 16.2 °F 45% 29.88 in 10.0 mi West 11.5 mph 20.7 mph N/A   Clear
11:35 AM 36.9 °F 28.2 °F 16.7 °F 44% 29.88 in 10.0 mi WSW 13.8 mph 23.0 mph N/A   Clear
11:55 AM 37.6 °F 29.6 °F 17.2 °F 44% 29.87 in 10.0 mi West 12.7 mph 24.2 mph N/A   Clear
12:15 PM 38.1 °F 31.2 °F 18.0 °F 44% 29.88 in 10.0 mi WSW 10.4 mph 18.4 mph N/A   Clear
12:35 PM 38.5 °F 29.9 °F 18.1 °F 44% 29.88 in 10.0 mi WSW 15.0 mph 21.9 mph N/A   Clear
12:55 PM 38.7 °F 30.5 °F 18.5 °F 44% 29.87 in 10.0 mi SW 13.8 mph 19.6 mph N/A   Scattered Clouds
1:15 PM 39.2 °F 31.6 °F 18.7 °F 44% 29.87 in 10.0 mi WSW 12.7 mph 18.4 mph N/A   Clear
1:35 PM 39.6 °F 31.7 °F 18.9 °F 43% 29.88 in 10.0 mi WSW 13.8 mph 20.7 mph N/A   Clear
1:55 PM 39.7 °F 31.5 °F 18.7 °F 43% 29.88 in 10.0 mi WSW 15.0 mph 19.6 mph N/A   Clear
2:15 PM 40.3 °F 33.0 °F 18.7 °F 42% 29.89 in 10.0 mi West 12.7 mph 20.7 mph N/A   Clear
2:35 PM 40.3 °F 32.2 °F 18.7 °F 42% 29.90 in 10.0 mi WSW 15.0 mph 20.7 mph N/A   Clear
2:55 PM 40.6 °F 33.0 °F 18.9 °F 42% 29.90 in 10.0 mi WSW 13.8 mph 21.9 mph N/A   Clear
3:15 PM 40.5 °F 35.1 °F 18.5 °F 41% 29.90 in 10.0 mi WSW 8.1 mph 16.1 mph N/A   Clear
3:35 PM 40.8 °F 34.5 °F 18.9 °F 41% 29.91 in 10.0 mi WSW 10.4 mph 17.3 mph N/A   Clear
3:55 PM 40.5 °F 35.1 °F 18.9 °F 42% 29.91 in 10.0 mi West 8.1 mph - N/A   Clear
4:15 PM 40.5 °F 35.8 °F 19.6 °F 43% 29.92 in 10.0 mi WSW 6.9 mph - N/A   Clear
4:35 PM 39.7 °F 33.2 °F 19.2 °F 44% 29.93 in 10.0 mi WSW 10.4 mph - N/A   Clear
4:55 PM 39.0 °F 35.7 °F 19.2 °F 45% 29.93 in 10.0 mi West 4.6 mph - N/A   Clear
5:15 PM 37.8 °F 34.2 °F 18.5 °F 46% 29.95 in 10.0 mi WNW 4.6 mph 16.1 mph N/A   Clear
5:35 PM 36.3 °F 30.1 °F 18.0 °F 47% 29.96 in 10.0 mi NW 8.1 mph - N/A   Clear
5:55 PM 35.1 °F 30.1 °F 17.2 °F 48% 29.97 in 10.0 mi NW 5.8 mph - N/A   Clear
6:15 PM 33.6 °F 27.5 °F 16.9 °F 50% 29.99 in 10.0 mi NW 6.9 mph - N/A   Clear
6:35 PM 32.4 °F 26.9 °F 16.7 °F 53% 30.01 in 10.0 mi NW 5.8 mph - N/A   Clear
6:55 PM 31.8 °F 23.9 °F 16.7 °F 54% 30.02 in 10.0 mi WNW 9.2 mph 16.1 mph N/A   Clear
7:15 PM 31.3 °F 22.7 °F 16.0 °F 53% 30.03 in 10.0 mi WNW 10.4 mph 19.6 mph N/A   Clear
7:35 PM 30.7 °F 24.1 °F 16.0 °F 54% 30.04 in 10.0 mi WNW 6.9 mph - N/A   Clear
7:55 PM 30.0 °F 23.2 °F 16.2 °F 56% 30.04 in 10.0 mi West 6.9 mph - N/A   Clear
8:15 PM 30.0 °F 23.2 °F 16.3 °F 57% 30.03 in 10.0 mi West 6.9 mph - N/A   Clear
8:35 PM 30.2 °F 26.7 °F 16.5 °F 57% 30.04 in 10.0 mi West 3.5 mph - N/A   Clear
8:55 PM 30.6 °F 27.1 °F 16.7 °F 56% 30.03 in 10.0 mi SW 3.5 mph - N/A   Clear
9:15 PM 30.4 °F 26.9 °F 17.1 °F 58% 30.04 in 10.0 mi SW 3.5 mph - N/A   Clear
9:35 PM 30.0 °F 24.1 °F 17.2 °F 59% 30.04 in 10.0 mi West 5.8 mph - N/A   Clear
10:15 PM 28.9 °F - 17.4 °F 62% 30.05 in 10.0 mi Calm Calm - N/A   Clear
10:35 PM 28.9 °F - 17.1 °F 61% 30.05 in 10.0 mi Calm Calm - N/A   Clear
10:55 PM 28.9 °F 23.9 °F 16.9 °F 61% 30.05 in 10.0 mi WSW 4.6 mph - N/A   Clear
11:35 PM 28.4 °F 23.3 °F 16.7 °F 62% 30.06 in 10.0 mi WSW 4.6 mph - N/A   Clear